[[{"header":{"parameterUnit":"m.s-1","parameterCategory":2,"la1":30.2991,"la2":30.254,"lo1":-89.0895,"lo2":-89.0444,"dy":0.0017,"dx":0.0017,"nx":28,"ny":28,"refTime":"2025-04-28T09:00:00:Z","depth":"0","parameterNumber":2,"parameterNumberName":"U-component_of_CURRENTS"},"data":[0,0,0,0,0,0,0,0,0,0,0,0,0,0,0,0,0,0,0,0,0,0,0,0,0,0,0,0,0,0,0,0,0,0,0,0,0,0,0,0,0,0,0,0,0,0,0,0,0,0,0,0,0,0,0,0,0,0,-0.2588,-0.2589,0,-0.2682,-0.2683,-0.2684,-0.2673,-0.2671,-0.267,-0.2669,-0.2657,-0.2657,-0.2658,0,0,0,0,0,0,0,0,0,0,0,0,0,-0.2421,-0.2423,-0.2588,-0.2589,-0.259,-0.2682,-0.2683,-0.2684,-0.2673,-0.2671,-0.267,-0.2668,-0.2656,-0.2657,-0.2658,0,0,0,0,0,0,0,0,0,0,0,0,0,-0.2499,-0.2424,-0.2587,-0.2598,-0.26,-0.2682,-0.2683,-0.2684,-0.2673,-0.2671,-0.2669,-0.2668,-0.2656,-0.2657,-0.2658,-0.2703,0,0,-0.2662,-0.2663,0,0,0,0,0,0,0,0,-0.2494,-0.2505,-0.2595,-0.2598,-0.26,-0.2666,-0.262,-0.2686,-0.2674,-0.2642,-0.2669,-0.2667,-0.2653,-0.2655,-0.2674,-0.2702,-0.2702,-0.2662,-0.2663,-0.2663,-0.2664,0,0,0,0,0,0,0,-0.2489,-0.2501,-0.2622,-0.2597,-0.26,-0.2607,-0.2615,-0.2633,-0.2652,-0.2645,-0.2645,-0.2661,-0.2653,-0.2673,-0.2673,-0.2701,-0.2662,-0.2663,-0.2664,-0.2664,-0.2717,-0.2718,0,0,0,0,0,0,-0.2485,-0.2496,-0.2619,-0.2625,-0.2545,-0.2611,-0.2621,-0.2644,-0.2655,-0.2656,-0.2663,-0.266,-0.2671,-0.2672,-0.2672,-0.2684,-0.2663,-0.2665,-0.2665,-0.2716,-0.2717,-0.2718,0,0,0,0,0,0,-0.2481,-0.2496,-0.2615,-0.2564,-0.258,-0.2616,-0.2643,-0.2647,-0.2662,-0.267,-0.2668,-0.2672,-0.267,-0.2671,-0.269,-0.2685,-0.2665,-0.2666,-0.2715,-0.2716,-0.2717,-0.2734,0,0,0,0,0,0,-0.2476,-0.2494,-0.2505,-0.2564,-0.2583,-0.2665,-0.2645,-0.2651,-0.2676,-0.2674,-0.2678,-0.2675,-0.2669,-0.2688,-0.2691,-0.2686,-0.2667,-0.2715,-0.2716,-0.2717,-0.2733,-0.2736,-0.2738,0,0,0,0,0,-0.247,-0.2502,-0.2505,-0.252,-0.2599,-0.2667,-0.2677,-0.2693,-0.2678,-0.2696,-0.2695,-0.2675,-0.2697,-0.2691,-0.2694,-0.2689,-0.2714,-0.2716,-0.2717,-0.2732,-0.2735,-0.2738,0,0,0,0,0,0,-0.2436,-0.2506,-0.251,-0.2561,-0.2608,-0.2666,-0.2686,-0.2698,-0.2716,-0.2705,-0.2698,-0.2697,-0.2709,-0.2706,-0.2699,-0.2708,-0.2697,-0.2699,-0.2707,-0.271,-0.2713,-0.2696,-0.2668,0,0,0,0,0,-0.2436,-0.2471,-0.2537,-0.2572,-0.2598,-0.264,-0.2667,-0.2684,-0.2713,-0.2719,-0.2722,-0.272,-0.2723,-0.2721,-0.273,-0.2746,-0.2722,-0.274,-0.2743,-0.2745,-0.2734,-0.271,-0.2709,-0.2723,-0.2723,-0.2723,0,0,-0.243,-0.2473,-0.2491,-0.2566,-0.26,-0.2647,-0.265,-0.2699,-0.2721,-0.2715,-0.2736,-0.2738,-0.2732,-0.2745,-0.2748,-0.2736,-0.273,-0.2747,-0.2749,-0.2736,-0.2711,-0.271,-0.2708,-0.2724,-0.2723,-0.2723,0,0,-0.2447,-0.2477,-0.2515,-0.256,-0.2623,-0.2652,-0.2667,-0.2728,-0.2734,-0.2771,-0.2758,-0.2759,-0.2779,-0.2766,-0.2761,-0.2786,-0.2751,-0.2786,-0.2779,-0.2756,-0.2754,-0.2752,-0.272,-0.2714,-0.278,-0.278,-0.278,0,-0.2434,-0.2492,-0.2536,-0.2587,-0.2615,-0.2653,-0.2695,-0.2722,-0.2775,-0.2773,-0.2775,-0.2783,-0.2783,-0.2772,-0.2778,-0.2789,-0.2768,-0.2766,-0.2757,-0.2755,-0.2753,-0.272,-0.2714,-0.2781,-0.2781,-0.278,-0.278,0,-0.2485,-0.2526,-0.2554,-0.2621,-0.2658,-0.2703,-0.2748,-0.277,-0.2778,-0.2793,-0.2795,-0.2802,-0.2794,-0.2797,-0.2796,-0.2777,-0.2765,-0.2769,-0.2745,-0.2752,-0.2717,-0.2711,-0.2782,-0.2782,-0.2781,-0.2781,0,0,-0.2457,-0.2568,-0.2572,-0.2597,-0.2676,-0.2709,-0.2742,-0.2775,-0.2774,-0.2806,-0.2796,-0.2805,-0.2795,-0.2789,-0.2783,-0.2764,-0.2736,-0.2758,-0.2756,-0.2717,-0.2674,-0.2592,-0.2577,-0.2737,-0.2736,-0.2735,-0.2656,0,-0.2474,-0.256,-0.261,-0.2662,-0.2703,-0.2738,-0.276,-0.2787,-0.28,-0.2804,-0.2792,-0.279,-0.2794,-0.2785,-0.2768,-0.2753,-0.2719,-0.2756,-0.268,-0.2677,-0.2597,-0.2567,-0.2474,-0.2388,-0.2649,-0.2648,-0.2648,0,-0.2497,-0.2549,-0.2612,-0.2668,-0.2686,-0.2714,-0.273,-0.2759,-0.2772,-0.2778,-0.2772,-0.2772,-0.2753,-0.2756,-0.2709,-0.2732,-0.2696,-0.2678,-0.2675,-0.2583,-0.2582,-0.2425,-0.2366,-0.2353,-0.2637,-0.2638,-0.2639,0,-0.2442,-0.2537,-0.2576,-0.2603,-0.2682,-0.2688,-0.2713,-0.2738,-0.2745,-0.2755,-0.2756,-0.2742,-0.2731,-0.2697,-0.2669,-0.2685,-0.2609,-0.2627,-0.251,-0.2504,-0.2399,-0.2385,-0.2307,-0.2566,-0.2566,-0.2566,-0.2567,0,-0.2434,-0.2458,-0.255,-0.2571,-0.2582,-0.2649,-0.265,-0.2674,-0.27,-0.2697,-0.273,-0.2718,-0.2715,-0.2682,-0.2652,-0.2553,-0.259,-0.2487,-0.247,-0.2403,-0.2391,-0.2354,-0.2389,-0.2563,-0.2564,-0.2565,-0.2565,0,-0.2363,-0.2438,-0.2476,-0.2549,-0.2562,-0.2563,-0.261,-0.2609,-0.2655,-0.2653,-0.2655,-0.2686,-0.2642,-0.2621,-0.2563,-0.2516,-0.2396,-0.2395,-0.2311,-0.2284,-0.2152,-0.2192,-0.209,-0.2028,-0.2244,-0.2241,-0.2239,0,-0.2332,-0.2352,-0.2429,-0.2434,-0.2462,-0.2484,-0.2489,-0.2559,-0.257,-0.2624,-0.2611,-0.2595,-0.255,-0.2445,-0.2356,-0.2252,-0.2279,-0.2116,-0.2121,-0.2105,-0.2138,-0.2177,-0.2137,-0.1995,-0.1991,-0.1987,-0.1985,0,-0.2246,-0.2279,-0.2306,-0.2326,-0.2338,-0.2357,-0.2384,-0.2393,-0.247,-0.2483,-0.2483,-0.2457,-0.237,-0.223,-0.2112,-0.2044,-0.2068,-0.2042,-0.2047,-0.1939,-0.1954,-0.1899,-0.2097,-0.1955,-0.1958,-0.196,-0.1962,-0.1963,-0.2156,-0.2143,-0.218,-0.2178,-0.2197,-0.2198,-0.2166,-0.2222,-0.2223,-0.2217,-0.2299,-0.2232,-0.2158,-0.1967,-0.1889,-0.1744,-0.182,-0.1707,-0.1757,-0.1798,-0.1729,-0.1849,-0.168,-0.1681,-0.1682,-0.1683,-0.1684,0,-0.2044,-0.203,-0.2021,-0.202,-0.1979,-0.2043,-0.2055,-0.2005,-0.1964,-0.2016,-0.1996,-0.1949,-0.1801,-0.1741,-0.16,-0.1507,-0.1476,-0.1484,-0.1533,-0.1503,-0.161,-0.1589,-0.1364,-0.1364,-0.1364,-0.1364,-0.1364,-0.1364,-0.1984,-0.1932,-0.1919,-0.1794,-0.1779,-0.1679,-0.1653,-0.1622,-0.1627,-0.1581,-0.1591,-0.1628,-0.1613,-0.1683,-0.1533,-0.1439,-0.1419,-0.1366,-0.1399,-0.151,-0.1536,-0.1561,-0.1547,-0.1317,-0.1317,-0.123,-0.123,-0.123]},{"header":{"parameterUnit":"m.s-1","parameterCategory":2,"la1":30.2991,"la2":30.254,"lo1":-89.0895,"lo2":-89.0444,"dy":0.0017,"dx":0.0017,"nx":28,"ny":28,"refTime":"2025-04-28T09:00:00:Z","depth":"0","parameterNumber":3,"parameterNumberName":"V-component_of_CURRENTS"},"data":[0,0,0,0,0,0,0,0,0,0,0,0,0,0,0,0,0,0,0,0,0,0,0,0,0,0,0,0,0,0,0,0,0,0,0,0,0,0,0,0,0,0,0,0,0,0,0,0,0,0,0,0,0,0,0,0,0,0,-0.0124,-0.0123,0,-0.0014,-0.0013,-0.0011,0.0069,0.007,0.007,0.0071,0.022,0.0224,0.0227,0,0,0,0,0,0,0,0,0,0,0,0,0,-0.0173,-0.0173,-0.0124,-0.0123,-0.0122,-0.0014,-0.0013,-0.0011,0.0069,0.007,0.007,0.0071,0.0219,0.0223,0.0228,0,0,0,0,0,0,0,0,0,0,0,0,0,-0.0114,-0.0173,-0.0124,-0.0071,-0.0066,-0.0015,-0.0013,-0.001,0.0069,0.007,0.0071,0.0071,0.0218,0.0223,0.0228,0.0249,0,0,0.0245,0.0247,0,0,0,0,0,0,0,0,-0.0117,-0.0112,-0.008,-0.0075,-0.0069,0.0012,0.0025,0.0077,0.0069,0.0021,0.0071,0.0071,0.0152,0.0162,0.0186,0.0256,0.0263,0.0245,0.0248,0.0251,0.0252,0,0,0,0,0,0,0,-0.0122,-0.0116,-0.0077,-0.0079,-0.0072,-0.0022,-0.0013,0.0036,0.0085,0.0026,0.0031,0.0038,0.0156,0.018,0.019,0.0265,0.0245,0.025,0.0253,0.0255,0.0365,0.0365,0,0,0,0,0,0,-0.0147,-0.012,-0.0081,-0.0074,-0.0096,-0.0022,-0.0012,-0.0012,0.0084,0.0098,0.0037,0.0041,0.0171,0.0183,0.0195,0.0221,0.0251,0.0256,0.0259,0.0365,0.0365,0.0364,0,0,0,0,0,0,-0.0149,-0.0145,-0.0085,-0.0097,-0.0086,-0.0023,-0.0023,-0.001,0.0013,0.0092,0.0107,0.0047,0.0172,0.0188,0.0242,0.0228,0.0258,0.0263,0.0366,0.0365,0.0365,0.0276,0,0,0,0,0,0,-0.0151,-0.0146,-0.0153,-0.0099,-0.0086,-0.0066,-0.0023,-0.0009,0.0015,0.0021,0.0105,0.012,0.0173,0.0233,0.0247,0.0236,0.0267,0.0366,0.0365,0.0365,0.028,0.0273,0.0267,0,0,0,0,0,-0.0153,-0.017,-0.0154,-0.0149,-0.0098,-0.0067,-0.0056,-0.0006,0.0014,0.0019,0.0082,0.0117,0.0239,0.0238,0.0254,0.0244,0.0366,0.0366,0.0365,0.0283,0.0274,0.0267,0,0,0,0,0,0,-0.0193,-0.0162,-0.0143,-0.0149,-0.0116,-0.0055,-0.0048,-0.0016,0.0038,0.0045,0.0122,0.0141,0.018,0.0225,0.0222,0.0273,0.0305,0.0307,0.0237,0.023,0.0223,0.0209,0.0272,0,0,0,0,0,-0.0207,-0.0211,-0.017,-0.0174,-0.0163,-0.0107,-0.0088,-0.0057,-0.0006,0.0018,0.0078,0.0139,0.019,0.0219,0.0271,0.0303,0.0352,0.0305,0.0298,0.0293,0.0292,0.0347,0.0345,0.0362,0.0362,0.0362,0,0,-0.0223,-0.0207,-0.0208,-0.0182,-0.0151,-0.0143,-0.0094,-0.0075,-0.006,0.0026,0.0065,0.012,0.0193,0.023,0.0251,0.0267,0.0315,0.0292,0.0286,0.0289,0.0346,0.0344,0.0343,0.0362,0.0362,0.0362,0,0,-0.0262,-0.0244,-0.0262,-0.0242,-0.0211,-0.0174,-0.0175,-0.0121,-0.009,-0.0048,0.0014,0.0063,0.0141,0.0192,0.0227,0.0217,0.0279,0.0226,0.0186,0.0238,0.0237,0.0237,0.0299,0.0305,0.0223,0.0223,0.0223,0,-0.0282,-0.0298,-0.0261,-0.0272,-0.0259,-0.0196,-0.0206,-0.0166,-0.0099,-0.0075,-0.005,0.0067,0.0123,0.0175,0.0172,0.0202,0.0246,0.0206,0.0229,0.023,0.0231,0.0295,0.0303,0.0219,0.0219,0.022,0.022,0,-0.0333,-0.0341,-0.0351,-0.0341,-0.0322,-0.0321,-0.0267,-0.024,-0.0195,-0.0148,-0.009,-0.0006,0.0063,0.0082,0.0127,0.0159,0.0192,0.0212,0.0244,0.0224,0.0293,0.0303,0.0213,0.0214,0.0215,0.0216,0,0,-0.0384,-0.0388,-0.039,-0.0398,-0.036,-0.0351,-0.0327,-0.0285,-0.0267,-0.0197,-0.0165,-0.008,-0.0032,0.001,0.0071,0.0117,0.0163,0.016,0.0165,0.0214,0.0288,0.0341,0.0357,0.0184,0.0185,0.0186,0.0333,0,-0.0432,-0.0479,-0.0456,-0.0478,-0.0494,-0.0431,-0.0414,-0.0365,-0.0306,-0.0257,-0.0168,-0.0112,-0.006,-0.0028,0.0024,0.013,0.0184,0.0122,0.0307,0.0312,0.0356,0.0368,0.0414,0.0552,0.0343,0.0345,0.0346,0,-0.0489,-0.0512,-0.0556,-0.0553,-0.0552,-0.0548,-0.0504,-0.0479,-0.0392,-0.0347,-0.0273,-0.0193,-0.0105,-0.0063,0.0104,0.0061,0.0164,0.0246,0.0254,0.0342,0.0384,0.054,0.0578,0.0729,0.0361,0.036,0.0359,0,-0.0551,-0.0576,-0.0615,-0.0615,-0.0601,-0.06,-0.058,-0.0511,-0.0488,-0.0398,-0.0365,-0.0247,-0.0175,-0.0048,0.0131,0.0117,0.0321,0.0326,0.0476,0.0482,0.0578,0.059,0.0779,0.0443,0.0442,0.0442,0.0442,0,-0.0613,-0.0641,-0.0651,-0.0673,-0.0707,-0.0667,-0.0673,-0.0631,-0.0568,-0.0538,-0.0419,-0.0355,-0.0169,-0.0023,0.0121,0.0339,0.0321,0.048,0.0525,0.0549,0.0556,0.0738,0.0787,0.0448,0.0446,0.0445,0.0444,0,-0.0675,-0.0683,-0.0729,-0.0738,-0.0742,-0.0764,-0.0746,-0.0742,-0.0672,-0.0626,-0.0598,-0.0426,-0.0224,-0.0022,0.0214,0.0339,0.064,0.0613,0.0635,0.068,0.0936,0.0977,0.1213,0.1315,0.0793,0.0795,0.0797,0,-0.0711,-0.0746,-0.0788,-0.0819,-0.0827,-0.0848,-0.0859,-0.0805,-0.079,-0.0659,-0.0638,-0.043,-0.0255,0.0118,0.0376,0.0657,0.0766,0.0851,0.0829,0.0972,0.1051,0.1076,0.1146,0.0929,0.0932,0.0934,0.0936,0,-0.0772,-0.0788,-0.0827,-0.0899,-0.093,-0.0959,-0.0963,-0.097,-0.0887,-0.081,-0.0659,-0.0502,-0.0121,0.0233,0.0593,0.0758,0.0969,0.0906,0.1056,0.1178,0.1218,0.1331,0.0814,0.0957,0.0955,0.0953,0.0952,0.0951,-0.0801,-0.0852,-0.0905,-0.0967,-0.101,-0.1048,-0.1059,-0.1031,-0.0981,-0.0826,-0.0675,-0.0378,0.0108,0.0636,0.0819,0.121,0.1163,0.1326,0.1368,0.1383,0.1473,0.1001,0.1185,0.1184,0.1184,0.1183,0.1183,0,-0.0811,-0.0882,-0.0964,-0.1034,-0.1086,-0.109,-0.1106,-0.1071,-0.0991,-0.0796,-0.0589,-0.0003,0.0477,0.0906,0.1439,0.1654,0.1699,0.1761,0.1813,0.1866,0.1466,0.1462,0.1712,0.1711,0.1711,0.1711,0.1711,0.1711,-0.0814,-0.0899,-0.0956,-0.1067,-0.1116,-0.1138,-0.1138,-0.1055,-0.0911,-0.055,-0.0196,0.0096,0.0703,0.1522,0.2009,0.2061,0.2242,0.2233,0.2326,0.2045,0.2007,0.197,0.1981,0.2336,0.2336,0.2726,0.273,0.2733]}],[{"header":{"parameterUnit":"m.s-1","parameterCategory":2,"la1":30.2991,"la2":30.254,"lo1":-89.0895,"lo2":-89.0444,"dy":0.0017,"dx":0.0017,"nx":28,"ny":28,"refTime":"2025-04-28T09:00:00:Z","depth":"2","parameterNumber":2,"parameterNumberName":"U-component_of_CURRENTS"},"data":[0,0,0,0,0,0,0,0,0,0,0,0,0,0,0,0,0,0,0,0,0,0,0,0,0,0,0,0,0,0,0,0,0,0,0,0,0,0,0,0,0,0,0,0,0,0,0,0,0,0,0,0,0,0,0,0,0,0,-0.222,-0.222,0,-0.2274,-0.2274,-0.2275,-0.2262,-0.2261,-0.226,-0.2259,-0.2262,-0.2262,-0.2263,0,0,0,0,0,0,0,0,0,0,0,0,0,-0.2124,-0.2126,-0.222,-0.222,-0.2221,-0.2274,-0.2274,-0.2275,-0.2262,-0.2261,-0.226,-0.2259,-0.2261,-0.2262,-0.2263,0,0,0,0,0,0,0,0,0,0,0,0,0,-0.2168,-0.2126,-0.2219,-0.2223,-0.2224,-0.2274,-0.2274,-0.2275,-0.2262,-0.2261,-0.2259,-0.2258,-0.2261,-0.2262,-0.2263,-0.2296,0,0,-0.2267,-0.2268,0,0,0,0,0,0,0,0,-0.2166,-0.2171,-0.2222,-0.2223,-0.2224,-0.2262,-0.2242,-0.228,-0.2262,-0.2245,-0.2259,-0.2258,-0.2259,-0.2261,-0.2271,-0.2296,-0.2296,-0.2267,-0.2268,-0.2269,-0.2269,0,0,0,0,0,0,0,-0.2163,-0.2169,-0.2238,-0.2223,-0.2224,-0.2229,-0.2233,-0.2249,-0.2255,-0.2246,-0.2246,-0.2257,-0.2259,-0.227,-0.2271,-0.2296,-0.2267,-0.2268,-0.2269,-0.227,-0.2339,-0.234,0,0,0,0,0,0,-0.2162,-0.2166,-0.2237,-0.224,-0.2194,-0.2232,-0.2236,-0.2249,-0.2256,-0.2258,-0.2258,-0.2256,-0.2268,-0.2269,-0.2271,-0.2301,-0.2269,-0.227,-0.227,-0.2337,-0.2339,-0.234,0,0,0,0,0,0,-0.216,-0.2168,-0.2235,-0.2206,-0.2215,-0.2235,-0.2249,-0.2251,-0.2261,-0.2266,-0.2265,-0.2266,-0.2267,-0.2269,-0.229,-0.2301,-0.227,-0.2271,-0.2336,-0.2338,-0.2339,-0.2367,0,0,0,0,0,0,-0.2157,-0.2166,-0.2174,-0.2206,-0.2217,-0.2267,-0.225,-0.2253,-0.2271,-0.2269,-0.2273,-0.2272,-0.2266,-0.2288,-0.2291,-0.2302,-0.2272,-0.2335,-0.2337,-0.2339,-0.2364,-0.2369,-0.2373,0,0,0,0,0,-0.2153,-0.2172,-0.2174,-0.2183,-0.2227,-0.2268,-0.2274,-0.2282,-0.2272,-0.2284,-0.2287,-0.2272,-0.2303,-0.229,-0.2294,-0.2305,-0.2334,-0.2336,-0.2339,-0.2362,-0.2368,-0.2373,0,0,0,0,0,0,-0.2134,-0.2174,-0.2176,-0.2206,-0.2235,-0.2267,-0.2281,-0.2288,-0.2302,-0.2297,-0.2291,-0.2292,-0.2315,-0.2312,-0.2298,-0.2332,-0.2314,-0.2317,-0.2331,-0.2336,-0.2341,-0.2331,-0.2273,0,0,0,0,0,-0.2135,-0.2155,-0.2195,-0.2216,-0.2233,-0.2257,-0.2274,-0.2284,-0.2303,-0.2307,-0.2313,-0.2318,-0.233,-0.2333,-0.2346,-0.2368,-0.2348,-0.2376,-0.2381,-0.2384,-0.238,-0.237,-0.2372,-0.2348,-0.2348,-0.2348,0,0,-0.2132,-0.2156,-0.2167,-0.2212,-0.2233,-0.2267,-0.2263,-0.2296,-0.2317,-0.2307,-0.2333,-0.2339,-0.2342,-0.2364,-0.2373,-0.236,-0.2381,-0.2387,-0.239,-0.2384,-0.2373,-0.2375,-0.2377,-0.235,-0.2349,-0.2349,0,0,-0.2141,-0.216,-0.2183,-0.2213,-0.2254,-0.2275,-0.2286,-0.2325,-0.2334,-0.2369,-0.2362,-0.2374,-0.2398,-0.2398,-0.2401,-0.2439,-0.2409,-0.2444,-0.2453,-0.2444,-0.2445,-0.2446,-0.2419,-0.2417,-0.2441,-0.2441,-0.2441,0,-0.2135,-0.2168,-0.2196,-0.2229,-0.2251,-0.2279,-0.2309,-0.2334,-0.2373,-0.2381,-0.2379,-0.2409,-0.2413,-0.2428,-0.2439,-0.2447,-0.243,-0.2431,-0.2447,-0.2448,-0.2448,-0.242,-0.2418,-0.2442,-0.2442,-0.2442,-0.2442,0,-0.2163,-0.2191,-0.2209,-0.2255,-0.2286,-0.2317,-0.2358,-0.2384,-0.2398,-0.2415,-0.244,-0.2449,-0.2459,-0.2467,-0.2465,-0.2474,-0.2457,-0.2457,-0.2429,-0.2452,-0.2421,-0.2418,-0.2445,-0.2444,-0.2444,-0.2443,0,0,-0.2138,-0.2213,-0.2216,-0.2238,-0.23,-0.2325,-0.2369,-0.2409,-0.2425,-0.2457,-0.2469,-0.2495,-0.2491,-0.2494,-0.2493,-0.2486,-0.2476,-0.2472,-0.2471,-0.2436,-0.244,-0.2356,-0.2344,-0.2477,-0.2477,-0.2477,-0.2414,0,-0.2145,-0.22,-0.224,-0.2285,-0.2314,-0.2356,-0.2392,-0.243,-0.2456,-0.2478,-0.2487,-0.2502,-0.2504,-0.2504,-0.2501,-0.2489,-0.2471,-0.2492,-0.2431,-0.2428,-0.2344,-0.2339,-0.2178,-0.2102,-0.2411,-0.241,-0.241,0,-0.2152,-0.2187,-0.2232,-0.2292,-0.2309,-0.234,-0.2387,-0.2425,-0.2466,-0.2484,-0.2501,-0.251,-0.2515,-0.2508,-0.2486,-0.2499,-0.2468,-0.2452,-0.2449,-0.2357,-0.2339,-0.2132,-0.2085,-0.2405,-0.2405,-0.2406,-0.2406,0,-0.2102,-0.2176,-0.2205,-0.2228,-0.2306,-0.2327,-0.2364,-0.2416,-0.2441,-0.2481,-0.2495,-0.2508,-0.2508,-0.2488,-0.2461,-0.2472,-0.2421,-0.2431,-0.2321,-0.2314,-0.2156,-0.2136,-0.2397,-0.2397,-0.2397,-0.2397,-0.2398,0,-0.2085,-0.2105,-0.2183,-0.2197,-0.2226,-0.2294,-0.2323,-0.2365,-0.2417,-0.2435,-0.2484,-0.2489,-0.2503,-0.2482,-0.2454,-0.237,-0.2412,-0.231,-0.229,-0.2161,-0.2143,-0.2394,-0.2394,-0.2395,-0.2396,-0.2396,-0.2396,0,-0.2019,-0.2075,-0.2108,-0.2183,-0.2203,-0.2219,-0.2292,-0.2311,-0.2377,-0.2401,-0.2412,-0.2466,-0.2438,-0.2429,-0.2389,-0.2345,-0.2285,-0.224,-0.2079,-0.2041,-0.2185,-0.2188,-0.211,-0.2107,-0.2104,-0.2101,-0.2099,0,-0.1988,-0.2,-0.2072,-0.2083,-0.2113,-0.2154,-0.2178,-0.2267,-0.2291,-0.2374,-0.2371,-0.2379,-0.2345,-0.2263,-0.2185,-0.2094,-0.2185,-0.1906,-0.1898,-0.2166,-0.2155,-0.2163,-0.2169,-0.1699,-0.1693,-0.1689,-0.1686,0,-0.1913,-0.1941,-0.1964,-0.1991,-0.2017,-0.2049,-0.2094,-0.2109,-0.2207,-0.2232,-0.2245,-0.2227,-0.2163,-0.2,-0.1903,-0.1837,-0.1912,-0.1815,-0.2123,-0.1803,-0.1774,-0.1765,-0.1786,-0.1648,-0.1651,-0.1654,-0.1656,-0.1658,-0.1838,-0.1834,-0.1863,-0.1874,-0.1905,-0.1912,-0.1892,-0.1949,-0.196,-0.1957,-0.2044,-0.1956,-0.1936,-0.1687,-0.1589,-0.1513,-0.1646,-0.1583,-0.1597,-0.1616,-0.1586,-0.1554,-0.138,-0.1382,-0.1384,-0.1386,-0.1387,0,-0.1721,-0.1731,-0.1741,-0.1748,-0.1726,-0.1787,-0.1802,-0.1753,-0.1709,-0.1734,-0.1709,-0.1521,-0.1406,-0.1389,-0.1205,-0.1168,-0.1169,-0.1127,-0.114,-0.1177,-0.1211,-0.1162,-0.0842,-0.0841,-0.0839,-0.0838,0,0,-0.1657,-0.1617,-0.1622,-0.155,-0.1557,-0.1477,-0.1452,-0.14,-0.1378,-0.1287,-0.1238,-0.1321,-0.1344,-0.1097,-0.1037,-0.0911,-0.1035,-0.0861,-0.1297,-0.1349,-0.138,-0.1469,-0.1435,0,0,0,0,0]},{"header":{"parameterUnit":"m.s-1","parameterCategory":2,"la1":30.2991,"la2":30.254,"lo1":-89.0895,"lo2":-89.0444,"dy":0.0017,"dx":0.0017,"nx":28,"ny":28,"refTime":"2025-04-28T09:00:00:Z","depth":"2","parameterNumber":3,"parameterNumberName":"V-component_of_CURRENTS"},"data":[0,0,0,0,0,0,0,0,0,0,0,0,0,0,0,0,0,0,0,0,0,0,0,0,0,0,0,0,0,0,0,0,0,0,0,0,0,0,0,0,0,0,0,0,0,0,0,0,0,0,0,0,0,0,0,0,0,0,-0.0267,-0.0266,0,-0.0198,-0.0197,-0.0196,-0.0137,-0.0137,-0.0136,-0.0136,-0.0008,-0.0005,-0.0002,0,0,0,0,0,0,0,0,0,0,0,0,0,-0.0281,-0.0281,-0.0267,-0.0266,-0.0266,-0.0199,-0.0197,-0.0196,-0.0137,-0.0137,-0.0136,-0.0135,-0.0009,-0.0006,-0.0002,0,0,0,0,0,0,0,0,0,0,0,0,0,-0.0248,-0.0281,-0.0267,-0.023,-0.0226,-0.0199,-0.0197,-0.0196,-0.0137,-0.0137,-0.0136,-0.0135,-0.001,-0.0006,-0.0002,0.0011,0,0,0.0012,0.0014,0,0,0,0,0,0,0,0,-0.025,-0.0247,-0.0236,-0.0232,-0.0228,-0.0177,-0.0155,-0.0124,-0.0137,-0.0169,-0.0136,-0.0135,-0.0061,-0.0052,-0.0039,0.0017,0.0023,0.0012,0.0015,0.0017,0.0018,0,0,0,0,0,0,0,-0.0252,-0.025,-0.0238,-0.0235,-0.023,-0.0194,-0.0189,-0.0149,-0.0117,-0.0166,-0.0162,-0.0158,-0.0058,-0.0044,-0.0036,0.0024,0.0012,0.0016,0.0019,0.0021,0.0123,0.0123,0,0,0,0,0,0,-0.0269,-0.0252,-0.024,-0.0236,-0.024,-0.0194,-0.0189,-0.0193,-0.0119,-0.0108,-0.0159,-0.0155,-0.0051,-0.0041,-0.0031,0.0002,0.0017,0.0021,0.0024,0.0123,0.0123,0.0123,0,0,0,0,0,0,-0.027,-0.0269,-0.0243,-0.0243,-0.0238,-0.0196,-0.02,-0.0192,-0.0176,-0.0114,-0.0101,-0.0152,-0.005,-0.0037,0.0007,0.0007,0.0023,0.0027,0.0122,0.0123,0.0123,0.0058,0,0,0,0,0,0,-0.0271,-0.027,-0.0277,-0.0245,-0.0238,-0.0236,-0.0201,-0.0191,-0.0176,-0.0171,-0.0104,-0.0092,-0.0049,0.0,0.0012,0.0013,0.003,0.0122,0.0123,0.0123,0.006,0.0056,0.0053,0,0,0,0,0,-0.0272,-0.0291,-0.0278,-0.0276,-0.025,-0.0237,-0.023,-0.0195,-0.0177,-0.0177,-0.0125,-0.0094,0.0009,0.0004,0.0017,0.002,0.0122,0.0123,0.0123,0.0062,0.0057,0.0053,0,0,0,0,0,0,-0.03,-0.0286,-0.0271,-0.0284,-0.0265,-0.0228,-0.0225,-0.0202,-0.0162,-0.0154,-0.0092,-0.0076,-0.0038,-0.0001,-0.0008,0.005,0.007,0.0073,0.002,0.0016,0.0012,-0.0004,0.0034,0,0,0,0,0,-0.0311,-0.032,-0.0296,-0.0305,-0.03,-0.0263,-0.0252,-0.0231,-0.0194,-0.0176,-0.0129,-0.0075,-0.0029,-0.0001,0.0042,0.0074,0.0115,0.0085,0.0081,0.0077,0.0073,0.0133,0.0134,0.0123,0.0123,0.0123,0,0,-0.0323,-0.0317,-0.032,-0.0311,-0.0292,-0.0292,-0.0254,-0.0247,-0.0236,-0.0168,-0.0138,-0.009,-0.0024,0.0013,0.0033,0.0045,0.0102,0.0077,0.0074,0.0072,0.0133,0.0134,0.0135,0.0123,0.0123,0.0123,0,0,-0.0359,-0.0348,-0.0369,-0.0359,-0.0342,-0.0317,-0.0319,-0.0286,-0.026,-0.0229,-0.0174,-0.0126,-0.0062,-0.0011,0.0024,0.0024,0.0076,0.0035,0.0008,0.0065,0.0066,0.0068,0.0119,0.0125,0.0037,0.0037,0.0037,0,-0.0373,-0.0395,-0.0371,-0.0386,-0.038,-0.0333,-0.0347,-0.0317,-0.027,-0.0246,-0.0229,-0.0122,-0.0071,-0.0011,-0.0011,0.0016,0.0053,0.0018,0.0059,0.0062,0.0065,0.0117,0.0125,0.0034,0.0034,0.0034,0.0035,0,-0.0423,-0.0436,-0.0447,-0.0447,-0.0437,-0.0442,-0.0401,-0.0379,-0.0342,-0.0303,-0.0244,-0.0171,-0.0105,-0.0082,-0.0045,0.0001,0.0022,0.0043,0.0067,0.0061,0.0117,0.0126,0.0029,0.003,0.0031,0.0032,0,0,-0.0465,-0.0481,-0.0483,-0.0492,-0.047,-0.0467,-0.0446,-0.041,-0.0389,-0.0332,-0.0296,-0.0214,-0.017,-0.0129,-0.0072,-0.0023,0.0028,0.001,0.0014,0.0052,0.015,0.0171,0.0184,0.0054,0.0055,0.0056,0.0179,0,-0.0508,-0.0557,-0.0543,-0.0568,-0.0586,-0.0535,-0.0519,-0.0476,-0.0423,-0.0375,-0.0286,-0.0232,-0.0188,-0.0155,-0.0099,-0.0005,0.005,-0.0008,0.0156,0.0161,0.0175,0.0195,0.0162,0.0269,0.0189,0.0191,0.0192,0,-0.056,-0.0584,-0.0629,-0.063,-0.0631,-0.0632,-0.059,-0.0568,-0.0483,-0.044,-0.0366,-0.0293,-0.0204,-0.017,-0.0011,-0.0053,0.004,0.0112,0.012,0.0168,0.02,0.0264,0.029,0.0209,0.0207,0.0206,0.0205,0,-0.0609,-0.0638,-0.0676,-0.0679,-0.0674,-0.0672,-0.0656,-0.059,-0.0567,-0.0478,-0.0447,-0.0328,-0.0262,-0.0141,0.0011,0.0002,0.0184,0.0197,0.0307,0.031,0.0329,0.0331,0.0311,0.0311,0.0311,0.031,0.031,0,-0.0662,-0.0689,-0.0705,-0.0727,-0.0756,-0.0727,-0.0729,-0.069,-0.0629,-0.0599,-0.0487,-0.043,-0.0253,-0.0123,0.0004,0.0187,0.0188,0.0309,0.0347,0.0306,0.0304,0.0288,0.0283,0.0315,0.0314,0.0313,0.0312,0,-0.0713,-0.0725,-0.0769,-0.0782,-0.0786,-0.0806,-0.0792,-0.0785,-0.0721,-0.0676,-0.065,-0.0494,-0.0321,-0.014,0.0075,0.0184,0.035,0.0417,0.0353,0.0381,0.0438,0.0429,0.055,0.0551,0.0553,0.0554,0.0555,0,-0.0745,-0.0778,-0.0819,-0.0848,-0.0858,-0.0878,-0.0887,-0.0839,-0.0824,-0.0711,-0.0691,-0.0513,-0.037,-0.005,0.0169,0.0408,0.041,0.0512,0.0491,0.0439,0.0465,0.0453,0.0442,0.0495,0.0495,0.0496,0.0496,0,-0.08,-0.0815,-0.085,-0.0916,-0.0945,-0.097,-0.0976,-0.098,-0.0908,-0.0845,-0.0724,-0.0599,-0.0287,-0.0024,0.0278,0.0411,0.0466,0.0528,0.0512,0.043,0.0395,0.0417,0.0407,0.05,0.0499,0.0499,0.0499,0.0499,-0.083,-0.0871,-0.092,-0.0975,-0.1013,-0.1047,-0.1059,-0.1036,-0.0996,-0.0879,-0.0759,-0.0537,-0.0294,0.0146,0.0349,0.054,0.0539,0.0587,0.0583,0.0579,0.0541,0.051,0.0629,0.0629,0.063,0.063,0.063,0,-0.0867,-0.0913,-0.0974,-0.1037,-0.1082,-0.1086,-0.11,-0.1074,-0.1014,-0.0876,-0.0722,-0.0424,-0.0127,0.0131,0.0434,0.0609,0.059,0.0635,0.0572,0.0567,0.0564,0.0522,0.0607,0.0608,0.0608,0.0609,0,0,-0.0889,-0.0955,-0.0988,-0.1072,-0.1114,-0.1143,-0.1145,-0.1078,-0.0972,-0.0815,-0.0641,-0.042,-0.0109,0.01,0.0313,0.0471,0.0473,0.0485,0.0485,0.0379,0.0373,0.0518,0.0447,0,0,0,0,0]}],[{"header":{"parameterUnit":"m.s-1","parameterCategory":2,"la1":30.2991,"la2":30.254,"lo1":-89.0895,"lo2":-89.0444,"dy":0.0017,"dx":0.0017,"nx":28,"ny":28,"refTime":"2025-04-28T09:00:00:Z","depth":"4","parameterNumber":2,"parameterNumberName":"U-component_of_CURRENTS"},"data":[0,0,0,0,0,0,0,0,0,0,0,0,0,0,0,0,0,0,0,0,0,0,0,0,0,0,0,0,0,0,0,0,0,0,0,0,0,0,0,0,0,0,0,0,0,0,0,0,0,0,0,0,0,0,0,0,0,0,-0.1502,-0.1503,0,-0.1556,-0.1556,-0.1557,-0.1585,-0.1586,-0.1586,-0.1586,-0.1641,-0.1642,-0.1644,0,0,0,0,0,0,0,0,0,0,0,0,0,-0.1433,-0.1434,-0.1502,-0.1503,-0.1504,-0.1556,-0.1556,-0.1557,-0.1585,-0.1586,-0.1586,-0.1586,-0.1641,-0.1642,-0.1644,0,0,0,0,0,0,0,0,0,0,0,0,0,-0.1471,-0.1435,-0.1502,-0.1526,-0.1528,-0.1556,-0.1556,-0.1557,-0.1585,-0.1586,-0.1586,-0.1586,-0.164,-0.1642,-0.1644,-0.1649,0,0,-0.165,-0.1651,0,0,0,0,0,0,0,0,-0.1469,-0.1473,-0.1521,-0.1524,-0.1527,-0.1566,-0.1552,-0.1588,-0.1585,-0.1562,-0.1586,-0.1586,-0.1617,-0.1621,-0.1628,-0.1652,-0.1654,-0.165,-0.1651,-0.1652,-0.1652,0,0,0,0,0,0,0,-0.1466,-0.1471,-0.1522,-0.1522,-0.1526,-0.1537,-0.1542,-0.1559,-0.1586,-0.1564,-0.1567,-0.1575,-0.1618,-0.1626,-0.1629,-0.1655,-0.165,-0.1652,-0.1653,-0.1653,-0.176,-0.1762,0,0,0,0,0,0,-0.1462,-0.1469,-0.152,-0.1523,-0.15,-0.1538,-0.1544,-0.1552,-0.1586,-0.1592,-0.1575,-0.1576,-0.1622,-0.1627,-0.1631,-0.1704,-0.1652,-0.1654,-0.1655,-0.1759,-0.1761,-0.1763,0,0,0,0,0,0,-0.1461,-0.1466,-0.1518,-0.1499,-0.1506,-0.1539,-0.1547,-0.1553,-0.1585,-0.1594,-0.16,-0.1605,-0.1623,-0.1629,-0.1672,-0.1704,-0.1655,-0.1656,-0.1757,-0.1759,-0.1762,-0.1808,0,0,0,0,0,0,-0.1458,-0.1465,-0.1482,-0.1498,-0.1507,-0.155,-0.1547,-0.1553,-0.1589,-0.1592,-0.1621,-0.1625,-0.1624,-0.1669,-0.1673,-0.1706,-0.1658,-0.1754,-0.1758,-0.1761,-0.1804,-0.1812,-0.1818,0,0,0,0,0,-0.1456,-0.1473,-0.1483,-0.149,-0.1525,-0.1552,-0.1558,-0.158,-0.1591,-0.161,-0.1633,-0.1626,-0.1692,-0.1672,-0.1677,-0.171,-0.1753,-0.1757,-0.1761,-0.1801,-0.181,-0.1818,0,0,0,0,0,0,-0.1454,-0.1479,-0.1489,-0.1515,-0.154,-0.1558,-0.1581,-0.1596,-0.1629,-0.164,-0.1646,-0.1652,-0.1702,-0.1702,-0.1679,-0.1752,-0.1723,-0.1728,-0.1752,-0.176,-0.1767,-0.1763,-0.1659,0,0,0,0,0,-0.146,-0.1481,-0.1505,-0.1528,-0.1543,-0.1568,-0.1587,-0.1604,-0.1629,-0.1645,-0.1667,-0.1692,-0.1718,-0.1736,-0.1757,-0.1796,-0.1779,-0.1822,-0.1829,-0.1835,-0.1836,-0.1842,-0.1849,-0.1775,-0.1775,-0.1775,0,0,-0.1467,-0.1483,-0.1497,-0.153,-0.1551,-0.1579,-0.158,-0.1618,-0.1649,-0.1646,-0.1703,-0.172,-0.1735,-0.1779,-0.1801,-0.1785,-0.1847,-0.184,-0.1844,-0.1843,-0.1847,-0.1854,-0.186,-0.1778,-0.1777,-0.1777,0,0,-0.148,-0.1506,-0.1525,-0.155,-0.1588,-0.1605,-0.1623,-0.1659,-0.1687,-0.1737,-0.1745,-0.1782,-0.1824,-0.1839,-0.185,-0.191,-0.1884,-0.1923,-0.1955,-0.1961,-0.1966,-0.1971,-0.195,-0.1952,-0.1926,-0.1926,-0.1926,0,-0.149,-0.1513,-0.1536,-0.1562,-0.1587,-0.1621,-0.165,-0.1683,-0.1733,-0.1758,-0.1764,-0.1835,-0.1851,-0.1896,-0.1919,-0.1925,-0.1914,-0.1919,-0.1968,-0.1972,-0.1976,-0.1953,-0.1956,-0.1928,-0.1928,-0.1928,-0.1928,0,-0.1506,-0.1539,-0.1555,-0.1597,-0.1629,-0.1662,-0.1706,-0.1752,-0.179,-0.1817,-0.1882,-0.1905,-0.1942,-0.1959,-0.1959,-0.2004,-0.198,-0.1974,-0.1941,-0.1986,-0.196,-0.1961,-0.1932,-0.1931,-0.193,-0.193,0,0,-0.1486,-0.1553,-0.1561,-0.1589,-0.1652,-0.1676,-0.1741,-0.1797,-0.184,-0.1895,-0.194,-0.1996,-0.2009,-0.2023,-0.2032,-0.2043,-0.2062,-0.2026,-0.2025,-0.1994,-0.2056,-0.1909,-0.1895,-0.2064,-0.2065,-0.2065,-0.2022,0,-0.1493,-0.1539,-0.1577,-0.1634,-0.1661,-0.1721,-0.1776,-0.1836,-0.1888,-0.1942,-0.198,-0.2027,-0.2033,-0.2055,-0.2071,-0.2068,-0.2069,-0.2073,-0.2026,-0.2024,-0.1879,-0.1893,-0.2068,-0.2023,-0.2023,-0.2023,-0.2023,0,-0.1486,-0.1521,-0.1573,-0.1651,-0.1671,-0.1718,-0.1806,-0.1859,-0.1942,-0.1982,-0.2035,-0.2062,-0.2103,-0.2094,-0.2108,-0.211,-0.2089,-0.2078,-0.2075,-0.1921,-0.1879,-0.1972,-0.2025,-0.2025,-0.2024,-0.2024,-0.2024,0,-0.1437,-0.1516,-0.1557,-0.1584,-0.1679,-0.1725,-0.1782,-0.1872,-0.1919,-0.2004,-0.2038,-0.2092,-0.2115,-0.2116,-0.2099,-0.2109,-0.2086,-0.2092,-0.1936,-0.1925,-0.2051,-0.2046,-0.209,-0.209,-0.209,-0.209,-0.209,0,-0.1407,-0.1445,-0.1544,-0.1564,-0.1626,-0.1704,-0.1777,-0.1843,-0.193,-0.1969,-0.2051,-0.207,-0.2124,-0.2118,-0.21,-0.2005,-0.2084,-0.1932,-0.1904,-0.2071,-0.2069,-0.205,-0.2046,-0.2088,-0.2089,-0.2089,-0.2089,0,-0.1338,-0.1403,-0.1457,-0.1564,-0.1602,-0.1645,-0.1762,-0.1804,-0.1903,-0.1952,-0.1977,-0.2057,-0.2042,-0.2058,-0.2044,-0.1981,-0.1922,-0.1867,-0.2024,-0.2006,-0.1759,-0.1758,-0.1692,-0.1686,-0.1681,-0.1677,-0.1674,0,-0.1303,-0.1323,-0.1438,-0.147,-0.1522,-0.1603,-0.1653,-0.1772,-0.1807,-0.1917,-0.1915,-0.1952,-0.198,-0.183,-0.1873,-0.1806,-0.1788,-0.1746,-0.1773,-0.1739,-0.1718,-0.1725,-0.1731,-0.1666,-0.1665,-0.1664,-0.1663,0,-0.1229,-0.1282,-0.1325,-0.1391,-0.1451,-0.1507,-0.1583,-0.1595,-0.1712,-0.182,-0.1791,-0.1774,-0.1748,-0.1724,-0.1674,-0.1636,-0.1771,-0.1696,-0.1707,-0.1733,-0.1708,-0.1694,-0.1705,-0.1646,-0.1649,-0.165,-0.1651,0,-0.1174,-0.1186,-0.1247,-0.1293,-0.1363,-0.1378,-0.1438,-0.1465,-0.1513,-0.1633,-0.1613,-0.1652,-0.172,-0.1633,-0.1591,-0.1534,-0.1521,-0.1478,-0.15,-0.1518,-0.1482,-0.1426,-0.1242,0,0,0,0,0,-0.1107,-0.1103,-0.1141,-0.1182,-0.1246,-0.1281,-0.1373,-0.1435,-0.1545,-0.1475,-0.1539,-0.1504,-0.145,-0.1475,-0.1377,-0.1517,-0.153,-0.1398,-0.1493,-0.1555,-0.1574,-0.1548,0,0,0,0,0,0,-0.1058,-0.1085,-0.1098,-0.1075,-0.108,-0.1133,-0.1181,-0.126,-0.123,-0.1345,-0.1316,-0.1405,-0.1368,-0.147,-0.1342,-0.1348,-0.1373,-0.1431,-0.1427,-0.1545,-0.1562,-0.1577,-0.1556,0,0,0,0,0]},{"header":{"parameterUnit":"m.s-1","parameterCategory":2,"la1":30.2991,"la2":30.254,"lo1":-89.0895,"lo2":-89.0444,"dy":0.0017,"dx":0.0017,"nx":28,"ny":28,"refTime":"2025-04-28T09:00:00:Z","depth":"4","parameterNumber":3,"parameterNumberName":"V-component_of_CURRENTS"},"data":[0,0,0,0,0,0,0,0,0,0,0,0,0,0,0,0,0,0,0,0,0,0,0,0,0,0,0,0,0,0,0,0,0,0,0,0,0,0,0,0,0,0,0,0,0,0,0,0,0,0,0,0,0,0,0,0,0,0,-0.0228,-0.0228,0,-0.0195,-0.0194,-0.0194,-0.0161,-0.0161,-0.0161,-0.016,-0.0073,-0.0071,-0.0069,0,0,0,0,0,0,0,0,0,0,0,0,0,-0.022,-0.0221,-0.0228,-0.0228,-0.0227,-0.0195,-0.0194,-0.0194,-0.0161,-0.0161,-0.016,-0.016,-0.0074,-0.0072,-0.0069,0,0,0,0,0,0,0,0,0,0,0,0,0,-0.0208,-0.0221,-0.0228,-0.0208,-0.0206,-0.0195,-0.0194,-0.0194,-0.0161,-0.0161,-0.016,-0.016,-0.0075,-0.0072,-0.0069,-0.0059,0,0,-0.0059,-0.0058,0,0,0,0,0,0,0,0,-0.0209,-0.0208,-0.0211,-0.021,-0.0207,-0.0183,-0.016,-0.0146,-0.0161,-0.0177,-0.016,-0.016,-0.0106,-0.0101,-0.0094,-0.0055,-0.0051,-0.0059,-0.0057,-0.0056,-0.0055,0,0,0,0,0,0,0,-0.0209,-0.0209,-0.0213,-0.0211,-0.0209,-0.0187,-0.0184,-0.0157,-0.0142,-0.0175,-0.0173,-0.0172,-0.0104,-0.0097,-0.0092,-0.005,-0.0059,-0.0057,-0.0055,-0.0053,0.0023,0.0023,0,0,0,0,0,0,-0.0219,-0.021,-0.0215,-0.0213,-0.0208,-0.0187,-0.0185,-0.019,-0.0144,-0.0137,-0.0173,-0.0171,-0.0103,-0.0095,-0.0088,-0.0065,-0.0056,-0.0053,-0.0051,0.0023,0.0023,0.0023,0,0,0,0,0,0,-0.0219,-0.022,-0.0216,-0.0211,-0.0209,-0.0188,-0.0194,-0.019,-0.0184,-0.0142,-0.0134,-0.0172,-0.0102,-0.0093,-0.0064,-0.0061,-0.0052,-0.0049,0.0022,0.0023,0.0023,-0.0023,0,0,0,0,0,0,-0.0219,-0.0221,-0.0228,-0.0212,-0.021,-0.0217,-0.0195,-0.0189,-0.0185,-0.0182,-0.0139,-0.0131,-0.0101,-0.0069,-0.0061,-0.0057,-0.0047,0.0022,0.0023,0.0023,-0.0022,-0.0025,-0.0027,0,0,0,0,0,-0.0219,-0.0235,-0.0229,-0.023,-0.0221,-0.0218,-0.0215,-0.0197,-0.0185,-0.0189,-0.0155,-0.0132,-0.0061,-0.0067,-0.0058,-0.0052,0.0022,0.0023,0.0023,-0.0021,-0.0024,-0.0027,0,0,0,0,0,0,-0.0236,-0.0233,-0.0226,-0.024,-0.0233,-0.0213,-0.0216,-0.0203,-0.018,-0.0175,-0.0132,-0.0121,-0.0095,-0.0068,-0.0076,-0.0028,-0.0015,-0.0012,-0.0051,-0.0054,-0.0056,-0.0069,-0.0044,0,0,0,0,0,-0.0244,-0.0255,-0.0245,-0.0256,-0.0255,-0.0236,-0.0233,-0.0222,-0.02,-0.019,-0.016,-0.0122,-0.0087,-0.0067,-0.0037,-0.0013,0.002,-0.0001,-0.0004,-0.0006,-0.001,0.0046,0.0048,0.0025,0.0025,0.0025,0,0,-0.0253,-0.0253,-0.0259,-0.026,-0.0252,-0.0257,-0.0233,-0.0234,-0.0231,-0.0183,-0.0169,-0.0133,-0.0083,-0.0056,-0.0041,-0.0032,0.0017,-0.0006,-0.0008,-0.001,0.0046,0.0049,0.0051,0.0025,0.0025,0.0025,0,0,-0.0279,-0.0278,-0.0296,-0.0294,-0.029,-0.0277,-0.028,-0.0265,-0.0251,-0.0234,-0.0194,-0.0156,-0.0113,-0.0071,-0.0044,-0.004,-0.0001,-0.0032,-0.0051,0.0003,0.0005,0.0008,0.0046,0.0052,-0.003,-0.003,-0.003,0,-0.029,-0.0311,-0.03,-0.0316,-0.0317,-0.0289,-0.0305,-0.0287,-0.0262,-0.0245,-0.0236,-0.0156,-0.0117,-0.0066,-0.0065,-0.0045,-0.0017,-0.0046,-0.0001,0.0003,0.0006,0.0045,0.0052,-0.0032,-0.0032,-0.0031,-0.0031,0,-0.0328,-0.0344,-0.0355,-0.0363,-0.0362,-0.0372,-0.0348,-0.0338,-0.0316,-0.0289,-0.0245,-0.0189,-0.0138,-0.0118,-0.0091,-0.0046,-0.0035,-0.0014,0.0003,0.0005,0.0046,0.0055,-0.0035,-0.0034,-0.0034,-0.0033,0,0,-0.0353,-0.0378,-0.0382,-0.0394,-0.0389,-0.0392,-0.0383,-0.0362,-0.0349,-0.031,-0.0284,-0.0217,-0.0183,-0.015,-0.0104,-0.0058,-0.0011,-0.0034,-0.003,-0.0003,0.0096,0.0071,0.0078,0.0015,0.0016,0.0017,0.0112,0,-0.0385,-0.0429,-0.0427,-0.0455,-0.0473,-0.0446,-0.044,-0.0413,-0.0378,-0.0344,-0.027,-0.023,-0.0194,-0.0169,-0.0117,-0.0038,0.0011,-0.0039,0.0096,0.0099,0.0072,0.0087,0.0022,0.0119,0.0121,0.0123,0.0124,0,-0.0421,-0.0445,-0.0488,-0.0502,-0.0507,-0.0517,-0.0496,-0.0486,-0.0424,-0.0394,-0.0333,-0.0276,-0.0198,-0.0172,-0.0035,-0.0071,0.0005,0.0066,0.0072,0.007,0.009,0.0121,0.014,0.0138,0.0137,0.0136,0.0135,0,-0.0447,-0.0484,-0.0521,-0.0528,-0.054,-0.0548,-0.0545,-0.0503,-0.0489,-0.0422,-0.04,-0.0299,-0.0246,-0.014,-0.0019,-0.0023,0.0127,0.0144,0.0196,0.0195,0.0209,0.0206,0.0244,0.0244,0.0244,0.0243,0.0243,0,-0.0479,-0.0507,-0.0541,-0.0562,-0.0596,-0.0587,-0.06,-0.0577,-0.0538,-0.0517,-0.043,-0.0385,-0.0236,-0.0133,-0.0025,0.0105,0.013,0.0193,0.0221,0.0187,0.018,0.0215,0.0211,0.0247,0.0246,0.0245,0.0245,0,-0.0501,-0.0525,-0.0571,-0.0602,-0.0615,-0.0638,-0.0652,-0.065,-0.0611,-0.058,-0.056,-0.044,-0.0306,-0.0162,0.0019,0.0093,0.0223,0.0266,0.0208,0.023,0.0258,0.025,0.0334,0.0334,0.0334,0.0334,0.0334,0,-0.0518,-0.0547,-0.0606,-0.0639,-0.066,-0.0692,-0.0711,-0.069,-0.0681,-0.0608,-0.0589,-0.0462,-0.0368,-0.013,0.0013,0.0213,0.0241,0.03,0.0287,0.025,0.0269,0.0261,0.0253,0.0334,0.0334,0.0334,0.0334,0,-0.0544,-0.0571,-0.0607,-0.0678,-0.0718,-0.075,-0.0771,-0.0771,-0.0731,-0.0702,-0.0592,-0.0462,-0.0312,-0.0129,0.0021,0.0165,0.0254,0.03,0.0302,0.029,0.0251,0.0267,0.026,0.0334,0.0334,0.0334,0.0334,0,-0.0561,-0.0595,-0.065,-0.0705,-0.0759,-0.0788,-0.0798,-0.0772,-0.0753,-0.0668,-0.0632,-0.0463,-0.0357,-0.0153,-0.0013,0.0119,0.0154,0.0191,0.0199,0.0201,0.0126,0.0055,0.0103,0,0,0,0,0,-0.0572,-0.0614,-0.0672,-0.073,-0.0781,-0.0809,-0.0825,-0.082,-0.0787,-0.0713,-0.0668,-0.0522,-0.0299,-0.0196,-0.0065,-0.0029,0.0159,0.0124,0.0201,0.0333,0.0333,0.0265,0,0,0,0,0,0,-0.0585,-0.0642,-0.0671,-0.0734,-0.0776,-0.0823,-0.0835,-0.0815,-0.076,-0.0709,-0.0582,-0.0506,-0.0284,-0.0371,-0.0066,-0.0027,0.0035,0.0235,0.0237,0.0333,0.0333,0.0333,0.0263,0,0,0,0,0]}]]